GW2305 Weather Reports


time (UTC)temp
C
wind
direction
speed
KPH
gust
KPH
rain 1hr
cm
rain 24hr
cm
rain mn
cm
humidity
%
barometer
mb
20260508071508 3 91 0.0 3.2 0.00 0.00 0.00 82 1005.1
20260508070016 4 100 0.0 1.6 0.00 0.03 0.00 84 1005.1
20260508064513 4 101 0.0 1.6 0.00 0.03 0.00 81 1005.2
20260508063037 4 11 0.0 3.2 0.00 0.03 0.00 81 1005.4
20260508061559 5 75 0.0 1.6 0.00 0.03 0.00 81 1005.2
20260508060012 4 77 0.0 3.2 0.00 0.25 0.00 79 1005.4
20260508054534 4 95 0.0 3.2 0.00 0.25 0.00 85 1005.6
20260508053046 4 70 0.0 1.6 0.00 0.25 0.00 80 1005.7
20260508051617 5 16 0.0 1.6 0.00 0.25 0.00 74 1006.0
20260508050023 4 347 0.0 1.6 0.00 0.61 0.00 84 1006.0
20260508044526 4 82 1.6 3.2 0.00 0.61 0.00 86 1006.1
20260508043042 3 72 0.0 1.6 0.00 0.61 0.00 85 1006.1
20260508041559 3 75 1.6 3.2 0.00 0.61 0.00 85 1006.2
20260508040013 4 75 0.0 0.0 0.00 0.61 0.61 85 1006.3
20260508034536 5 75 0.0 1.6 0.00 0.61 0.61 81 1006.3
20260508033044 5 75 0.0 1.6 0.00 0.61 0.61 76 1006.5
20260508031555 5 75 0.0 1.6 0.00 0.61 0.61 80 1006.3
20260508030057 6 75 0.0 0.0 0.00 0.64 0.61 80 1006.4
20260508024526 6 75 0.0 1.6 0.00 0.64 0.61 75 1006.0
20260508023026 6 75 0.0 1.6 0.00 0.64 0.61 74 1006.0
20260508021549 7 75 0.0 0.0 0.00 0.64 0.61 79 1005.9
20260508020119 8 75 0.0 1.6 0.00 0.71 0.61 73 1005.8
20260508014520 8 77 0.0 3.2 0.00 0.71 0.61 69 1005.7
20260508013033 9 11 0.0 4.8 0.00 0.71 0.61 70 1005.7
20260508011537 10 73 1.6 6.4 0.00 0.71 0.61 61 1005.6
20260508010055 10 46 3.2 9.7 0.00 0.81 0.61 59 1005.6
20260508004535 10 51 3.2 6.4 0.00 0.81 0.61 63 1005.3
20260508003031 11 55 3.2 11.3 0.00 0.81 0.61 62 1004.8
20260508001550 11 143 0.0 4.8 0.00 0.81 0.61 68 1004.6
20260508000011 11 11 0.0 6.4 0.00 0.84 0.61 64 1004.4
20260507234517 11 233 0.0 3.2 0.00 0.84 0.61 62 1004.2
20260507233024 12 75 0.0 6.4 0.00 0.84 0.61 61 1003.9
20260507231544 12 124 0.0 9.7 0.00 0.84 0.61 62 1003.7
20260507230111 12 98 1.6 9.7 0.00 1.22 0.61 59 1003.4
20260507224523 13 342 3.2 9.7 0.00 1.22 0.61 61 1003.1
20260507223038 13 301 3.2 12.9 0.00 1.22 0.61 62 1003.0
20260507221555 13 131 3.2 19.3 0.00 1.22 0.61 58 1002.8
20260507220017 15 101 3.2 12.9 0.00 1.50 0.61 57 1002.7
20260507214524 16 84 4.8 11.3 0.00 1.50 0.61 57 1002.6
20260507213042 15 103 0.0 14.5 0.00 1.50 0.61 72 1002.6
20260507211559 15 256 0.0 9.7 0.00 1.50 0.61 82 1002.5
20260507210015 14 198 4.8 9.7 0.00 1.75 0.61 82 1002.5
20260507204531 12 253 0.0 9.7 0.00 1.75 0.61 90 1002.3
20260507203114 11 124 4.8 6.4 0.00 1.75 0.61 89 1002.3
20260507201502 12 248 1.6 14.5 0.00 1.75 0.61 85 1002.4
20260507200017 13 231 3.2 6.4 0.00 1.85 0.61 84 1002.2
20260507194529 12 196 3.2 12.9 0.00 1.85 0.61 86 1002.3
20260507193043 13 203 9.7 14.5 0.00 1.85 0.61 83 1002.4
20260507191559 13 236 4.8 9.7 0.00 1.85 0.61 84 1002.4
20260507190021 13 236 4.8 9.7 0.00 1.85 0.61 82 1002.3
20260507184538 13 240 1.6 8.0 0.00 1.85 0.61 88 1002.6
20260507183052 12 232 4.8 16.1 0.00 1.85 0.61 88 1002.6
20260507181514 12 143 0.0 8.0 0.00 1.85 0.61 89 1002.9
20260507180025 13 218 4.8 14.5 0.00 1.85 0.61 83 1002.8
20260507174538 13 159 9.7 16.1 0.00 1.85 0.61 89 1003.1
20260507173110 12 206 4.8 14.5 0.00 1.85 0.61 88 1003.2
20260507171559 12 231 0.0 6.4 0.00 1.85 0.61 92 1003.3
20260507170008 12 236 1.6 9.7 0.00 1.85 0.61 87 1003.4
20260507164535 12 193 1.6 12.9 0.00 1.85 0.61 90 1003.5
20260507163047 12 260 1.6 6.4 0.00 1.85 0.61 90 1003.8
20260507161549 12 230 1.6 12.9 0.00 1.85 0.61 88 1003.9
20260507160006 12 200 1.6 9.7 0.00 1.85 0.61 93 1003.9
20260507154513 12 214 3.2 11.3 0.00 1.85 0.61 95 1004.0
20260507150100 11 83 4.8 11.3 0.00 1.85 0.61 93 1004.5
20260507144523 11 269 1.6 6.4 0.00 1.85 0.61 97 1004.5
20260507143048 11 103 0.0 6.4 0.00 1.85 0.61 96 1004.8
20260507141559 10 61 4.8 8.0 0.00 1.85 0.61 96 1004.9
20260507140015 10 86 1.6 8.0 0.00 1.85 0.61 96 1005.0
20260507134529 10 39 0.0 8.0 0.00 1.85 0.61 97 1005.0
20260507133125 10 18 1.6 9.7 0.00 1.85 0.61 98 1005.0
20260507131603 9 13 1.6 8.0 0.00 1.85 0.61 98 1005.4
20260507130014 9 53 1.6 8.0 0.00 1.85 0.61 99 1005.5
20260507124532 8 54 1.6 9.7 0.00 1.85 0.61 99 1005.3
20260507123051 8 233 1.6 12.9 0.00 1.85 0.61 99 1005.3
20260507121511 8 34 1.6 4.8 0.00 1.85 0.61 99 1005.1
20260507120016 8 241 0.0 3.2 0.00 1.85 0.61 99 1005.0
20260507114542 8 51 0.0 6.4 0.00 1.85 0.61 99 1005.2
20260507113050 8 68 1.6 3.2 0.00 1.85 0.61 100 1005.3
20260507111514 8 79 1.6 4.8 0.00 1.85 0.61 100 1005.4
20260507110019 8 137 0.0 1.6 0.00 1.85 0.61 100 1006.1